Location: Bakov nad Jizerou
(50.4784°N, 14.9394°E)
Time: 15:02:39
(UTC+00:00)

Cosmos 1464 Rocket - Pass Details

Date: 16 June 2021
Orbit: 953 x 1001 km, 82.9° (Epoch: 02 August)

Event Time Altitude Azimuth Distance (km) Brightness Sun altitude
Rises 22:23:09 0° 349° (N) 3,715 8.9 -15.7°
Reaches altitude 10° 22:25:41 10° 349° (N) 2,768 7.8 -15.7°
Maximum altitude 22:32:03 83° 263° (W) 1,012 4.1 -15.9°
Enters shadow 22:36:11 24° 177° (S) 1,956 5.0 -15.9°
